Regional Weather Roundup
Issued by NWS

Home | Current Version | Previous Version | Graphics & Text | Print | Product List | Glossary On
Versions: 1 2 3 4 5 6 7 8 9 10 11 12 13 14 15 16 17 18 19 20 21 22 23 24 25 26 27 28 29 30 31 32 33 34 35 36 37 38 39 40 41 42 43 44 45 46 47 48 49 50
000
ASUS43 KDMX 241307
RWRIA

WEATHER ROUNDUP FOR IOWA
NATIONAL WEATHER SERVICE DES MOINES IA
800 AM CDT SUN MAY 24 2015

NOTE: "FAIR" INDICATES FEW OR NO CLOUDS BELOW 12,000 FEET WITH NO
SIGNIFICANT WEATHER AND/OR OBSTRUCTIONS TO VISIBILITY.

* - THESE STATIONS ARE NOT NWS STATIONS...THUS NOT UNDER NWS
QUALITY CONTROL.  THEY ALSO DO NOT REPORT WEATHER SUCH
AS PRECIPITATION OR FOG.

IAZ001>003-012>014-020>022-031>034-043>046-241400-
   NORTHWEST IOWA

CITY           SKY/WX    TMP DP  RH WIND       PRES   REMARKS
CARROLL *      LGT RAIN  59  59 100 E13       29.93F
CHEROKEE *     CLOUDY    59  59 100 E10       29.95S
DENISON *      CLOUDY    59  59 100 E10G17    29.90F FOG
LE MARS *      CLOUDY    61  59  94 E10       29.93S
ORANGE CITY *  CLOUDY    57  55  94 E12G17    29.94S
SHELDON *      CLOUDY    59 N/A N/A E15G21    29.94F
SIOUX CITY     LGT RAIN  60  58  92 E9        29.91R FOG
SPENCER        LGT RAIN  59  57  93 E14       29.97F FOG
STORM LAKE *   CLOUDY    57  57 100 E15       29.96S FOG
$$

IAZ055>058-069>071-079>083-090>094-241400-
   SOUTHWEST IOWA

CITY           SKY/WX    TMP DP  RH WIND       PRES   REMARKS
ATLANTIC *     CLOUDY    61  61 100 E8G15     29.90F FOG
AUDUBON *      LGT RAIN  59  55  88 E10       29.93S
CLARINDA *     PTSUNNY   61  61 100 SE6       29.90F FOG
COUNCIL BLFS * CLOUDY    59  59 100 E9        29.89S FOG
CRESTON *      CLOUDY    61  61 100 SE16G22   29.91S FOG
HARLAN  *      CLOUDY    59  59 100 E10       29.93F FOG
LAMONI         LGT RAIN  63  59  87 SE9G21    29.91F
RED OAK *      CLOUDY    61  61 100 SE9       29.88F FOG
SHENANDOAH *   LGT RAIN  61  61 100 SE10      29.88F
$$

IAZ047>049-059>061-072>074-084-241400-
   CENTRAL IOWA

CITY           SKY/WX    TMP DP  RH WIND       PRES   REMARKS
AMES           LGT RAIN  59  58  96 E12       29.96F FOG
ANKENY *       CLOUDY    61  61 100 E12       29.96F
CHARITON *     CLOUDY    61  59  94 SE14G21   29.96S
DES MOINES     LGT RAIN  62  59  90 SE10G21   29.95F
GRINNELL*      HVY RAIN  59  57  94 E13G20    30.01F
KNOXVILLE *    LGT RAIN  61  59  94 SE10G20   29.96F
MARSHALLTOWN   RAIN      59  58  96 E15       30.01S FOG
PELLA *        CLOUDY    59  59 100 SE10      30.00S
PERRY *        RAIN      59  59 100 E14       29.94F
$$

IAZ004>006-015-016-023>025-035-036-241400-
   NORTH CENTRAL IOWA

CITY           SKY/WX    TMP DP  RH WIND       PRES   REMARKS
ALGONA *       DRIZZLE   59  59 100 E13G20    29.98F
CLARION *      LGT RAIN  59  59 100 E15       30.00F
ESTHERVILLE    CLOUDY    58  56  93 E13       29.99F
FORT DODGE *   CLOUDY    57  54  88 E14       29.98F
MASON CITY     LGT RAIN  60  56  86 SE10      30.04F
FOREST CITY *  RAIN      57  55  94 E8        30.02F
IOWA FALLS *   RAIN      59  57  94 E13       30.02F
$$

IAZ007>011-017>019-026>030-037>042-050>054-066-241400-
   NORTHEAST IOWA

CITY           SKY/WX    TMP DP  RH WIND       PRES   REMARKS
CEDAR RAPIDS   LGT RAIN  58  58 100 E10       30.05F FOG
CHARLES CITY * MOSUNNY   61  57  88 SE13      30.06F
CLINTON *      CLOUDY    61  54  77 S7        30.16R
DECORAH *      PTSUNNY   59  54  82 S8        30.09R
DUBUQUE        LGT RAIN  58  55  90 SE7       30.13R
MONTICELLO *   CLOUDY    59  57  94 SE10      30.11R FOG
OELWEIN *      CLOUDY    57  55  94 SE15      30.08F FOG
WATERLOO       LGT RAIN  58  57  97 SE13      30.05F FOG
$$

IAZ064-065-067-068-078-241400-
   EAST CENTRAL IOWA

CITY           SKY/WX    TMP DP  RH WIND       PRES   REMARKS
DAVENPORT      LGT RAIN  59  55  87 SE8       30.12S
IOWA CITY      LGT RAIN  59  57  93 E7        30.08F
MT. PLEASANT * RAIN      59  59 100 E14       30.04F
MUSCATINE *    CLOUDY    61  59  94 E8        30.07F
QUAD CITIES    LGT RAIN  59  56  89 E8        30.10F
$$

IAZ062-063-075>077-085>089-095>099-241400-
   SOUTHEAST IOWA

CITY           SKY/WX    TMP DP  RH WIND       PRES   REMARKS
BURLINGTON     LGT RAIN  61  58  90 E8        30.05F
FAIRFIELD *    LGT RAIN  59  57  94 E17       30.02F
FORT MADISON * LGT RAIN  61  57  88 E9        30.04F
KEOKUK *       CLOUDY    61  59  94 E12       30.02F
OSKALOOSA *    LGT RAIN  59  59 100 E16       30.01S
CENTERVILLE *  LGT RAIN  59  59 100 E10G16    29.99S
OTTUMWA        LGT RAIN  60  59  96 E14       30.00F
WASHINGTON *   CLOUDY    59  59 100 E14       30.06F FOG
$$

ABBREVIATIONS USED IN REMARKS
   TC - TEMPERATURES IN CELSIUS
  WCI - WIND CHILL INDEX
   HX - HEAT INDEX
  VSB - VISIBILITY
$$



USA.gov is the U.S. government's official web portal to all federal, state and local government web resources and services.